Regional Weather Roundup
Issued by NWS Grand Forks, ND

Home | Current Version | Previous Version | Text Only | Print | Product List | Glossary Off
Versions: 1 2 3 4 5 6 7 8 9 10 11 12 13 14 15 16 17 18 19 20 21 22 23 24 25 26 27 28 29 30 31 32 33 34 35 36 37 38 39 40 41 42 43 44 45 46 47 48 49 50

000
ASUS43 KFGF 210510
RWRFGF
PRAIRIE TO PINES  WEATHER ROUNDUP
NATIONAL WEATHER SERVICE EASTERN NORTH DAKOTA/GRAND FORKS ND
1200 AM CDT THU SEP 21 2017

 **SATELLITE DATA USED TO AUGMENT SKY COVER AT AUTOMATED STATIONS**
 *****  WEATHER ACROSS EASTERN NORTH DAKOTA  *****

CITY           SKY/WX    TMP DP  RH WIND       PRES   REMARKS
GRAND FORKS    FAIR      56  45  66 S13       29.80S
GRAND FRKS AFB FAIR      55  43  65 S9        29.80S
DEVILS LAKE    FAIR      60  40  47 S17       29.77R
FARGO          FAIR      59  44  57 S13       29.85S
WAHPETON ARPT  FAIR      52  43  71 SE8       29.88S
$$

 ***** WEATHER ACROSS CENTRAL AND WESTERN NORTH DAKOTA  *****

CITY           SKY/WX    TMP DP  RH WIND       PRES   REMARKS
BISMARCK       FAIR      56  41  57 S9        29.75S
MINOT          FAIR      51  39  63 SE6       29.67S
JAMESTOWN      FAIR      53  43  68 S9        29.80S
MINOT AFB      FAIR      47  38  72 S7        29.65S
GARRISON         N/A     56  43  61 S12       29.70R
WILLISTON      FAIR      42  37  82 CALM      29.64R
DICKINSON      FAIR      51  36  56 S8        29.68F
HETTINGER      FAIR      53  35  50 SE7       29.74S
$$

 *****  OTHER AIRPORT OBSERVATIONS IN OUR AREA  *****

CITY           SKY/WX    TMP DP  RH WIND       PRES   REMARKS
WALHALLA       FAIR     N/A N/A N/A S13       29.74S
GRAFTON AIRPOR FAIR      50  45  81 S9        29.81R
VALLEY CITY AR FAIR      52  46  82 S10       29.84F
CANDO          FAIR      52  45  76 S12       29.75F
CAVALIER APRT  FAIR      54  43  66 S10       29.76S
GWINNER        CLEAR     46  45  93 CALM      29.85S
SHEYENNE NWR     N/A     52  45  77 S7        29.95S
ROLLA          FAIR      48  41  76 SW8       29.72S
 ***** THE ABOVE OBSERVATIONS ARE NON NWS ARE NOT QUALITY
       CONTROLLED AND MAY MIS-REPORT RAIN FOR SNOW...
$$

  *****  WEATHER ACROSS NORTHERN MINNESOTA  *****

CITY           SKY/WX    TMP DP  RH WIND       PRES   REMARKS
FLAG ISLAND    FAIR      59  46  63 S9        29.82S
WARROAD        FAIR      54  46  76 S5        29.84S
ROSEAU         FAIR      52  45  76 S8        29.83S
HALLOCK        CLOUDY    54  46  76 S10       29.79S
THF RVR FALLS  FAIR      54  44  69 S7        29.86S
BAUDETTE       FAIR      52  46  80 S8        29.87R
WASKISH        FAIR      52  45  76 S6        29.90R
CROOKSTON      FAIR      55  45  67 S9        29.84S
STEPHEN NDAWN    N/A     55  45  67 S9          N/A
GREENBUSH NDAW   N/A     54  45  71 S6          N/A
$$
  *****  WEATHER ACROSS CENTRAL AND WEST MINNESOTA  *****

CITY           SKY/WX    TMP DP  RH WIND       PRES   REMARKS
FOSSTON        FAIR      52  45  76 SE7       29.89S
BEMIDJI        FAIR      50  44  78 S6        29.92R
PARK RAPIDS    FAIR      53  44  71 SE8       29.92S
ELBOW LAKE     FAIR      53  46  75 E9        29.91S
WADENA         FAIR      48  43  81 SE5       29.92F
DETROIT LAKES  FAIR      52  45  76 S5        29.91S
MOORHEAD       FAIR      54  45  71 SE7       29.87S
FERGUS FALLS   FAIR      54  43  66 SE7       29.90S
MORRIS MN      FAIR      52  48  87 SE8       29.90F
STAPLES        NOT AVBL
$$
  *****  WEATHER ELSEWHERE ACROSS MINNESOTA  *****

CITY           SKY/WX    TMP DP  RH WIND       PRES   REMARKS
DULUTH         FAIR      45  44  97 CALM      29.96R
INTRNTL FALLS  FAIR      45  41  86 CALM      29.91R
ELY            FAIR      45  43  93 CALM      29.96R
CLOQUET        FAIR      46  45  93 CALM      29.96R
WHEATON        FAIR      52  45  76 SE9       29.90S
BRAINERD       FAIR      47  46  97 CALM      29.96R
HIBBING        FAIR      41  40  96 CALM      29.96R FOG
ALEXANDRIA     FAIR      54  47  77 SE7       29.94S
SAINT CLOUD    FAIR      48  48 100 CALM      29.97R
MINNEAPOLIS    FAIR      62  52  69 CALM      29.97R
$$

  *****  WEATHER ACROSS SOUTH DAKOTA  *****

CITY           SKY/WX    TMP DP  RH WIND       PRES   REMARKS
SIOUX FALLS    FAIR      53  51  93 CALM      29.91F
BROOKINGS      FAIR      53  46  77 SE10      29.91F
WATERTOWN      FAIR      53  47  79 S9        29.89S
HURON          FAIR      57  48  72 S9        29.86S
SISSETON         N/A     49  46  90 E5        29.88R
ABERDEEN       FAIR      53  44  71 S10       29.84R
MITCHELL       FAIR      57  49  74 S9        29.88R
PIERRE         FAIR      58  38  47 E9        29.78F
MOBRIDGE       FAIR      52  37  56 SE9       29.76S
RAPID CITY     NOT AVBL
$$

  *****  SOME WEATHER IN NEARBY STATES *****

CITY           SKY/WX    TMP DP  RH WIND       PRES   REMARKS
GLASGOW MT     FAIR      51  38  60 SE6       29.60R
GREAT FALLS MT FAIR      44  30  57 SW12      29.67R
CHEYENNE WY    FAIR      55  29  36 S5        29.89F
SCOTTSBLUFF NE FAIR      59  35  40 SE15      29.82F
OMAHA NE       FAIR      60  55  83 NW7       29.90R
DES MOINES IA  FAIR      72  59  63 NE7       29.89S
DAVENPORT IA   TSTM      72  67  84 VRB6G26   30.03R
CHICAGO IL     CLOUDY    80  67  64 S9        29.92F
EAU CLAIRE WI  FAIR      55  54  96 CALM      29.97R
LA CROSSE WI   NOT AVBL
$$

  *****  SOME NATIONAL WEATHER *****

CITY           SKY/WX    TMP DP  RH WIND       PRES   REMARKS
LA GUARDIA NY  MOCLDY    74  64  71 NW10      29.93R
RALEIGH NC     FAIR      70  68  93 CALM      30.01S
ATLANTA GA     FAIR      74  67  78 NW5       30.05F
NEW ORLEANS LA MOCLDY    75  74  96 CALM      29.98F
OKLAHOMA CITY  CLOUDY    80  71  74 S9        29.87F
ALBUQUERQUE NM FAIR      74  26  16 S16       30.01R
SALT LAKE CITY FAIR      61  42  49 NW17      29.66R
LOS ANGELES CA MOCLDY    68  63  84 W10       29.86S
BOISE ID       CLOUDY    50  43  77 SE6       29.72S
SEATTLE WA     MOCLDY    52  48  86 S7        29.82S
$$

*** WEATHER ACROSS MANITOBA...SASKATCHEWAN AND ONTARIO ***
                ***ONTARIO***

CITY           SKY/WX    TMP DP  RH WIND       PRES   REMARKS
GERALDTON      CLEAR     54  52  94 SW3       29.94R
THUNDER BAY    CLEAR     50  50 100 SW6       29.94R
SIOUX LOOKOUT  CLEAR     48  45  87 S5        29.87R
TORONTO        CLEAR     68  61  77 SE3       30.04S
BIG TROUT LK   CLEAR     54  48  82 SW13G21   29.75R
PICKLE LAKE    NOT AVBL
DRYDEN         CLEAR     54  45  71 S13       29.86R
KENORA         CLEAR     55  46  71 S10       29.83R
$$
                *** MANITOBA***

CITY           SKY/WX    TMP DP  RH WIND       PRES   REMARKS
BRANDON        CLOUDY    50  43  76 CALM      29.66R
DAUPHIN        CLEAR     55  37  50 SW13      29.59R
ISLAND LAKE    PTCLDY    55  43  62 S12       29.60R
PILOT MOUND      N/A     50  41  71 S13         N/A
THE PAS        CLEAR     45  41  87 S3        29.44R
THOMPSON       NOT AVBL
WINNIPEG       PTCLDY    55  41  58 S14       29.73R
LYNN LAKE      LGT RAIN  41  41 100 NE14G22   29.32S FOG
CHURCHILL      LGT RAIN  45  43  93 E23G36    29.55F
GILLAM         CLEAR     46  45  93 S9        29.50R
$$
                ***SASKATCHEWAN***

CITY           SKY/WX    TMP DP  RH WIND       PRES   REMARKS
ESTEVAN        MOCLDY    45  37  76 SE9       29.62R
KINDERSLEY     CLEAR     36  32  87 W9        29.51R
LLOYDMINSTER   CLOUDY    41  37  87 W9        29.45R
PRINCE ALBERT  PTCLDY    36  34  93 CALM      29.44R
REGINA         PTCLDY    41  32  70 S12       29.55R
YORKTON        CLEAR     48  36  61 S9        29.55R
N. BATTLEFORD  CLEAR     41  34  75 W8        29.48R
LA RONGE       LGT RAIN  45  43  93 N5        29.38R
SASKATOON      PTCLDY    37  32  81 SW9       29.47R
SWIFT CURRENT  CLEAR     45  23  42 SW13      29.52R
$$
NOTE: THESE ARE AUTOMATED STATIONS WITH LIMITED QUALITY CONTROL
      "FAIR" INDICATES FEW OR NO CLOUDS BELOW 12,000 FEET WITH NO
      SIGNIFICANT WEATHER AND/OR OBSTRUCTIONS TO VISIBILITY.
      SKY/WX - SKY CONDITION AND SIGNIFICANT WEATHER.
      TMP - AIR TEMPERATURE.    DP   - DEWPOINT TEMPERATURE.
      RH  - RELATIVE HUMIDITY.  PRES - PRESSURE.
      HX  - HEAT INDEX.         WCI  - WIND CHILL INDEX.
$




USA.gov is the U.S. government's official web portal to all federal, state and local government web resources and services.